Погода в Белорецке

Россия / Кировская область     58°40′12″N   52°28′41″E
темп.,
°C
ветер,
м/с
пор.,
м/с
влажн.,
%
обл.,
%
осадки,
мм/ч
давл.,
гПа
погр.,
м
25 февраля, чт
чт2500:00−28с011000 0.0 103219
03:00−29юз11990 0.0 103219
06:00−29ю129717 0.0 103119
09:00−23ю249316 0.0 1029173
12:00−18ююв36890 0.0 1027343
15:00−17ююв37880 0.0 1025426
18:00−22юв38960 0.0 1024190
21:00−24ююв39960 0.0 1024208
26 февраля, пт
пт2600:00−26ююв38930 0.0 1023180
03:00−26юв37958 0.0 1024190
06:00−26ююв389656 0.0 1023221
09:00−23ююв389678 0.0 1022272
12:00−19ююв4993100 0.0 1020424
15:00−18ююв51092100 0.0 1018529
18:00−20юв51294100 0.0 1016494
21:00−20юв51393100 0.0 1014493
27 февраля, сб
сб2700:00−19юв51591100 0.0 1010531
03:00−18юв51489100 0.0 1009560
06:00−17вюв51292100 0.1 1007618
09:00−15вюв51192100 0.3 1007651
12:00−13вюв5890100 0.3 1007698
15:00−13в4890100 0.4 1007634
18:00−15в3994100 0.1 1008540
21:00−17всв389596 0.1 1009261
28 февраля, вс
вс2800:00−20всв389794 0.0 1009226
03:00−22всв379790 0.0 1011169
06:00−25св259857 0.0 1011132
09:00−21всв369538 0.0 1012263
12:00−17св359272 0.0 1012429
15:00−15св369186 0.1 1013502
18:00−19св2598100 0.0 101495
21:00−21ссв239985 0.0 101756
1 марта, пн
пн100:00−22ссв23980 0.0 101827
03:00−22с23990 0.0 102028
06:00−23с23990 0.0 102121
09:00−17с12948 0.0 1021166
12:00−11зсз128760 0.0 1021354
15:00−10зюз248952 0.0 1019424
18:00−15юз369750 0.0 101891
21:00−16юз399659 0.0 1016257